| time (UTC) | temp C | wind direction | speed KPH | gust KPH | rain 1hr cm | rain 24hr cm | rain mn cm | humidity % | barometer mb |
| 20260502160518 | 18 | 135 | 11.3 | 20.9 | 0.00 | 0.03 | 0.03 | 59 | 1019.4 |
| 20260502151518 | 19 | 135 | 9.7 | 19.3 | 0.00 | 0.03 | 0.03 | 53 | 1019.8 |
| 20260502150538 | 19 | 158 | 11.3 | 22.5 | 0.00 | 0.03 | 0.03 | 53 | 1019.8 |
| 20260502130538 | 19 | 135 | 9.7 | 16.1 | 0.00 | 0.03 | 0.03 | 58 | 1021.2 |
| 20260502123517 | 20 | 135 | 12.9 | 24.1 | 0.00 | 0.03 | 0.03 | 58 | 1021.1 |
| 20260502122517 | 19 | 135 | 9.7 | 20.9 | 0.00 | 0.03 | 0.03 | 58 | 1021.3 |
| 20260502121538 | 19 | 135 | 12.9 | 20.9 | 0.00 | 0.03 | 0.03 | 59 | 1021.4 |
| 20260502120517 | 19 | 135 | 8.0 | 17.7 | 0.00 | 0.03 | 0.03 | 60 | 1021.6 |
| 20260502115517 | 19 | 135 | 11.3 | 19.3 | 0.00 | 0.03 | 0.03 | 60 | 1021.5 |
| 20260502114517 | 19 | 135 | 9.7 | 20.9 | 0.00 | 0.03 | 0.03 | 61 | 1021.7 |
| 20260502113517 | 20 | 135 | 9.7 | 17.7 | 0.00 | 0.03 | 0.03 | 61 | 1021.7 |
| 20260502112517 | 20 | 113 | 8.0 | 16.1 | 0.00 | 0.03 | 0.03 | 62 | 1021.7 |
| 20260502111517 | 19 | 113 | 9.7 | 17.7 | 0.00 | 0.03 | 0.03 | 64 | 1021.8 |
| 20260502110517 | 18 | 113 | 9.7 | 17.7 | 0.00 | 0.03 | 0.03 | 66 | 1022.1 |
| 20260502105518 | 18 | 90 | 6.4 | 17.7 | 0.00 | 0.03 | 0.03 | 66 | 1022.0 |
| 20260502104537 | 18 | 113 | 8.0 | 14.5 | 0.00 | 0.03 | 0.03 | 67 | 1022.0 |
| 20260502103517 | 17 | 113 | 9.7 | 17.7 | 0.00 | 0.03 | 0.03 | 67 | 1022.1 |
| 20260502102517 | 17 | 135 | 8.0 | 16.1 | 0.00 | 0.03 | 0.03 | 68 | 1022.1 |
| 20260502101517 | 17 | 113 | 8.0 | 14.5 | 0.00 | 0.03 | 0.03 | 68 | 1022.2 |
| 20260502100517 | 17 | 68 | 8.0 | 19.3 | 0.00 | 0.03 | 0.03 | 71 | 1022.4 |
| 20260502091517 | 17 | 113 | 8.0 | 14.5 | 0.00 | 0.03 | 0.03 | 76 | 1022.7 |
| 20260502090517 | 16 | 135 | 6.4 | 14.5 | 0.00 | 0.03 | 0.03 | 77 | 1022.6 |
| 20260502071516 | 15 | 113 | 4.8 | 9.7 | 0.00 | 0.03 | 0.03 | 87 | 1022.9 |
| 20260502070537 | 15 | 68 | 1.6 | 6.4 | 0.00 | 0.03 | 0.03 | 87 | 1022.8 |
| 20260502065536 | 15 | 113 | 3.2 | 6.4 | 0.00 | 0.03 | 0.03 | 87 | 1023.0 |
| 20260502064517 | 15 | 135 | 3.2 | 9.7 | 0.00 | 0.03 | 0.03 | 86 | 1023.0 |
| 20260502063517 | 15 | 113 | 3.2 | 4.8 | 0.00 | 0.03 | 0.03 | 87 | 1022.9 |
| 20260502062516 | 15 | 68 | 3.2 | 4.8 | 0.00 | 0.03 | 0.03 | 87 | 1022.9 |
| 20260502061516 | 15 | 45 | 1.6 | 4.8 | 0.00 | 0.03 | 0.03 | 88 | 1022.9 |
| 20260502060516 | 15 | 0.0 | 3.2 | 0.00 | 0.03 | 0.03 | 88 | 1022.7 | |
| 20260502055517 | 15 | 90 | 1.6 | 3.2 | 0.00 | 0.03 | 0.03 | 88 | 1022.6 |
| 20260502054516 | 15 | 135 | 1.6 | 6.4 | 0.00 | 0.03 | 0.03 | 87 | 1022.7 |
| 20260502053516 | 15 | 113 | 3.2 | 4.8 | 0.03 | 0.03 | 0.03 | 87 | 1022.6 |
| 20260502052516 | 15 | 113 | 3.2 | 4.8 | 0.03 | 0.03 | 0.03 | 88 | 1022.5 |
| 20260502051536 | 15 | 113 | 6.4 | 12.9 | 0.03 | 0.03 | 0.03 | 87 | 1022.6 |
| 20260502050516 | 15 | 90 | 1.6 | 6.4 | 0.03 | 0.03 | 0.03 | 88 | 1022.6 |
| 20260502045517 | 15 | 113 | 3.2 | 6.4 | 0.03 | 0.03 | 0.03 | 89 | 1022.5 |
| 20260502044538 | 15 | 45 | 1.6 | 3.2 | 0.03 | 0.03 | 0.03 | 88 | 1022.6 |
| 20260502043518 | 15 | 90 | 3.2 | 6.4 | 0.00 | 0.00 | 0.00 | 87 | 1022.5 |
| 20260502042518 | 15 | 68 | 1.6 | 4.8 | 0.00 | 0.00 | 0.00 | 87 | 1022.5 |
| 20260502041518 | 15 | 90 | 1.6 | 4.8 | 0.00 | 0.00 | 0.00 | 87 | 1022.4 |
| 20260502040518 | 15 | 45 | 4.8 | 9.7 | 0.00 | 0.00 | 0.00 | 85 | 1022.3 |
| 20260502035518 | 15 | 68 | 4.8 | 8.0 | 0.00 | 0.00 | 0.00 | 83 | 1022.4 |
| 20260502034518 | 15 | 45 | 6.4 | 11.3 | 0.00 | 0.00 | 0.00 | 82 | 1022.5 |
| 20260502033518 | 15 | 45 | 3.2 | 6.4 | 0.00 | 0.00 | 0.00 | 81 | 1022.4 |
| 20260502032518 | 15 | 45 | 6.4 | 9.7 | 0.00 | 0.00 | 0.00 | 82 | 1022.5 |
| 20260502031518 | 15 | 45 | 3.2 | 6.4 | 0.00 | 0.00 | 0.00 | 82 | 1022.5 |
| 20260502030518 | 15 | 45 | 1.6 | 6.4 | 0.00 | 0.00 | 0.00 | 83 | 1022.5 |
| 20260502025518 | 15 | 113 | 1.6 | 4.8 | 0.00 | 0.00 | 0.00 | 83 | 1022.5 |
| 20260502024517 | 15 | 45 | 4.8 | 6.4 | 0.00 | 0.00 | 0.00 | 83 | 1022.5 |
| 20260502023518 | 15 | 45 | 6.4 | 9.7 | 0.00 | 0.00 | 0.00 | 83 | 1022.6 |
| 20260502022518 | 15 | 45 | 4.8 | 9.7 | 0.00 | 0.00 | 0.00 | 83 | 1022.6 |
| 20260502021518 | 15 | 45 | 6.4 | 12.9 | 0.00 | 0.00 | 0.00 | 83 | 1022.8 |
| 20260502020538 | 15 | 45 | 4.8 | 9.7 | 0.00 | 0.00 | 0.00 | 83 | 1022.8 |
| 20260502015519 | 15 | 135 | 4.8 | 9.7 | 0.00 | 0.00 | 0.00 | 84 | 1023.0 |
| 20260502014518 | 15 | 135 | 4.8 | 8.0 | 0.00 | 0.00 | 0.00 | 84 | 1023.0 |
| 20260502013518 | 16 | 135 | 4.8 | 8.0 | 0.00 | 0.00 | 0.00 | 84 | 1023.0 |
| 20260502012518 | 16 | 180 | 4.8 | 11.3 | 0.00 | 0.00 | 0.00 | 82 | 1023.2 |
| 20260502011518 | 16 | 135 | 1.6 | 4.8 | 0.00 | 0.00 | 0.00 | 81 | 1023.2 |
| 20260502010558 | 16 | 0.0 | 3.2 | 0.00 | 0.00 | 0.00 | 81 | 1023.2 | |
| 20260502005518 | 16 | 135 | 3.2 | 6.4 | 0.00 | 0.00 | 0.00 | 81 | 1023.2 |
| 20260502004517 | 16 | 135 | 3.2 | 6.4 | 0.00 | 0.00 | 0.00 | 82 | 1023.1 |
| 20260502003517 | 16 | 113 | 4.8 | 9.7 | 0.00 | 0.00 | 0.00 | 82 | 1023.3 |
| 20260502002518 | 15 | 113 | 4.8 | 6.4 | 0.00 | 0.00 | 0.00 | 83 | 1023.4 |
| 20260502001518 | 15 | 135 | 3.2 | 9.7 | 0.00 | 0.00 | 0.00 | 83 | 1023.8 |
| 20260502000518 | 15 | 158 | 4.8 | 8.0 | 0.00 | 0.00 | 0.00 | 84 | 1024.0 |
| 20260501235517 | 15 | 158 | 3.2 | 6.4 | 0.00 | 0.00 | 0.00 | 84 | 1024.1 |
| 20260501234536 | 15 | 135 | 4.8 | 9.7 | 0.00 | 0.00 | 0.00 | 84 | 1024.1 |
| 20260501233516 | 15 | 113 | 3.2 | 9.7 | 0.00 | 0.00 | 0.00 | 84 | 1024.1 |
| 20260501232516 | 15 | 45 | 3.2 | 8.0 | 0.00 | 0.00 | 0.00 | 85 | 1024.2 |
| 20260501231516 | 15 | 113 | 1.6 | 4.8 | 0.00 | 0.00 | 0.00 | 85 | 1024.1 |
| 20260501230516 | 15 | 293 | 1.6 | 3.2 | 0.00 | 0.00 | 0.00 | 85 | 1024.0 |
| 20260501225518 | 15 | 293 | 1.6 | 4.8 | 0.00 | 0.00 | 0.00 | 83 | 1024.2 |
| 20260501224519 | 15 | 0.0 | 1.6 | 0.00 | 0.00 | 0.00 | 83 | 1024.1 | |
| 20260501223518 | 15 | 225 | 1.6 | 3.2 | 0.00 | 0.00 | 0.00 | 83 | 1024.1 |
| 20260501222519 | 15 | 0.0 | 1.6 | 0.00 | 0.00 | 0.00 | 82 | 1024.0 | |
| 20260501221539 | 15 | 225 | 1.6 | 3.2 | 0.00 | 0.00 | 0.00 | 83 | 1024.0 |
| 20260501220519 | 15 | 135 | 3.2 | 6.4 | 0.00 | 0.00 | 0.00 | 83 | 1024.0 |
| 20260501215518 | 15 | 203 | 1.6 | 3.2 | 0.00 | 0.00 | 0.00 | 82 | 1023.9 |
| 20260501214518 | 15 | 203 | 1.6 | 4.8 | 0.00 | 0.00 | 0.00 | 81 | 1024.0 |
| 20260501213539 | 15 | 180 | 4.8 | 8.0 | 0.00 | 0.00 | 0.00 | 81 | 1024.0 |
| 20260501212518 | 15 | 158 | 6.4 | 9.7 | 0.00 | 0.00 | 0.00 | 81 | 1024.0 |
| 20260501211518 | 16 | 135 | 3.2 | 8.0 | 0.00 | 0.00 | 0.00 | 81 | 1024.0 |
| 20260501210538 | 16 | 135 | 4.8 | 9.7 | 0.00 | 0.00 | 0.00 | 81 | 1024.0 |
| 20260501205517 | 16 | 135 | 6.4 | 12.9 | 0.00 | 0.00 | 0.00 | 81 | 1024.0 |
| 20260501204518 | 16 | 135 | 8.0 | 16.1 | 0.00 | 0.00 | 0.00 | 81 | 1024.0 |
| 20260501203518 | 16 | 158 | 6.4 | 12.9 | 0.00 | 0.00 | 0.00 | 80 | 1024.0 |
| 20260501202518 | 16 | 135 | 9.7 | 19.3 | 0.00 | 0.00 | 0.00 | 80 | 1023.9 |
| 20260501201518 | 16 | 135 | 11.3 | 17.7 | 0.00 | 0.00 | 0.00 | 80 | 1023.7 |
| 20260501200538 | 16 | 135 | 9.7 | 19.3 | 0.00 | 0.00 | 0.00 | 79 | 1023.6 |
| 20260501195538 | 16 | 135 | 11.3 | 20.9 | 0.00 | 0.00 | 0.00 | 78 | 1023.6 |
| 20260501194538 | 16 | 135 | 8.0 | 16.1 | 0.00 | 0.00 | 0.00 | 77 | 1023.4 |
| 20260501193518 | 16 | 135 | 16.1 | 24.1 | 0.00 | 0.00 | 0.00 | 76 | 1023.1 |
| 20260501192517 | 17 | 135 | 12.9 | 20.9 | 0.00 | 0.00 | 0.00 | 74 | 1023.1 |
| 20260501191539 | 17 | 158 | 11.3 | 19.3 | 0.00 | 0.00 | 0.00 | 72 | 1022.7 |
| 20260501190518 | 17 | 135 | 11.3 | 16.1 | 0.00 | 0.00 | 0.00 | 70 | 1022.6 |
| 20260501185518 | 17 | 135 | 12.9 | 19.3 | 0.00 | 0.00 | 0.00 | 69 | 1022.5 |
| 20260501184518 | 17 | 158 | 8.0 | 14.5 | 0.00 | 0.00 | 0.00 | 68 | 1022.2 |
| 20260501183517 | 18 | 135 | 8.0 | 12.9 | 0.00 | 0.00 | 0.00 | 67 | 1022.1 |
| 20260501182518 | 18 | 135 | 9.7 | 19.3 | 0.00 | 0.00 | 0.00 | 66 | 1022.1 |
| 20260501181517 | 18 | 180 | 11.3 | 16.1 | 0.00 | 0.00 | 0.00 | 65 | 1021.9 |
| 20260501180517 | 18 | 158 | 8.0 | 12.9 | 0.00 | 0.00 | 0.00 | 64 | 1021.6 |
| 20260501175518 | 18 | 135 | 11.3 | 17.7 | 0.00 | 0.00 | 0.00 | 64 | 1021.5 |
| 20260501174517 | 18 | 158 | 11.3 | 20.9 | 0.00 | 0.00 | 0.00 | 64 | 1021.4 |
| 20260501173518 | 18 | 135 | 8.0 | 16.1 | 0.00 | 0.00 | 0.00 | 63 | 1021.3 |
| 20260501172518 | 19 | 135 | 9.7 | 16.1 | 0.00 | 0.00 | 0.00 | 63 | 1021.3 |
| 20260501171518 | 19 | 135 | 9.7 | 16.1 | 0.00 | 0.00 | 0.00 | 63 | 1021.3 |
| 20260501170517 | 19 | 135 | 11.3 | 20.9 | 0.00 | 0.00 | 0.00 | 62 | 1021.2 |
| 20260501165517 | 20 | 135 | 11.3 | 19.3 | 0.00 | 0.00 | 0.00 | 62 | 1021.3 |
| 20260501164518 | 20 | 135 | 12.9 | 19.3 | 0.00 | 0.00 | 0.00 | 61 | 1021.2 |
| 20260501163517 | 20 | 135 | 9.7 | 17.7 | 0.00 | 0.00 | 0.00 | 60 | 1021.2 |
| 20260501162518 | 20 | 135 | 8.0 | 17.7 | 0.00 | 0.00 | 0.00 | 59 | 1021.1 |
| 20260501161518 | 20 | 90 | 12.9 | 22.5 | 0.00 | 0.00 | 0.00 | 59 | 1021.1 |